Regional Weather Roundup
Issued by NWS Sioux Falls, SD

Home | Current Version | Previous Version | Graphics & Text | Print | Product List | Glossary On
Versions: 1 2 3 4 5 6 7 8 9 10 11 12 13 14 15 16 17 18 19 20 21 22 23 24 25 26 27 28 29 30 31 32 33 34 35 36 37 38 39 40 41 42 43 44 45 46 47 48 49 50
000
ASUS43 KFSD 251202
RWRFSD

WEATHER ROUNDUP FOR SE SOUTH DAKOTA/SW MINNESOTA/NW IOWA
NATIONAL WEATHER SERVICE SIOUX FALLS SD
700 AM CDT TUE APR 25 2017

NOTE: "FAIR" INDICATES FEW OR NO CLOUDS BELOW 12,000 FEET WITH NO
SIGNIFICANT WEATHER AND OR OBSTRUCTIONS TO VISIBILITY.


SDZ038>040-050-052>070-251300-
SOUTHEAST SOUTH DAKOTA

CITY           SKY/WX    TMP DP  RH WIND       PRES   REMARKS
BROOKINGS      CLOUDY    36  35  96 N15G21    29.57S
CHAMBERLAIN    CLOUDY    38  35  88 NW15      29.65R
6HR MIN TEMP:  38; 6HR MAX TEMP:  42;

HURON          CLOUDY    35  33  92 N21G28    29.63S WCI  24
6HR MIN TEMP:  35; 6HR MAX TEMP:  39;

MADISON        CLOUDY    37  37 100 N16       29.57F FOG
MITCHELL       CLOUDY    37  35  92 N18G28    29.62S
6HR MIN TEMP:  37; 6HR MAX TEMP:  42;

SIOUX FALLS    CLOUDY    41  39  93 N12       29.55F
6HR MIN TEMP:  40; 6HR MAX TEMP:  44;

WINNER         CLOUDY    37  33  85 N14       29.65S
YANKTON        CLOUDY    39  36  87 N15       29.57R
$$

MNZ071-072-080-081-089-090-097-098-251300-
SOUTHWEST MINNESOTA

CITY           SKY/WX    TMP DP  RH WIND       PRES   REMARKS
FAIRMONT       CLOUDY    42  40  92 NW17      29.54R FOG
JACKSON        FOG       37  37 100 NW13G21   29.54S VSB 1/4
LUVERNE        CLOUDY    39  36  87 N9G17     29.55F
MARSHALL       CLOUDY    37  36  96 N17G23    29.58R FOG
6HR MIN TEMP:  36; 6HR MAX TEMP:  40; 6HR PCP: TRACE;

MONTEVIDEO     CLOUDY    36  36 100 N16G26    29.58R FOG
PIPESTONE      FOG       37  34  87 N14       29.55F VSB 1
REDWOOD FALLS  FOG       38  36  92 NW18G24   29.55S VSB 3/4
TRACY          FOG       38  38 100 NW16G22   29.58R VSB 1/2
WINDOM         FOG       39  37  93 NW14      29.55R VSB 3/4
WORTHINGTON    FOG       37  37 100 N17       29.55S VSB 3/4
$$

IAZ001>003-012>014-020>022-031-032-NEZ013-014-SDZ071-251300-
NORTHWEST IOWA

CITY           SKY/WX    TMP DP  RH WIND       PRES   REMARKS
CHEROKEE       CLOUDY    44  43  96 N12       29.54R
DENISON        CLOUDY    46  43  87 N6        29.54S
ESTHERVILLE    CLOUDY    40  40 100 N17       29.53R FOG
LE MARS        CLOUDY    43  39  87 N10       29.55S
ORANGE CITY    CLOUDY    43  41  93 N8        29.53F
SHELDON        CLOUDY    41  39  93 N13       29.53R
SIOUX CITY     CLOUDY    43  39  86 N9        29.55S
6HR MIN TEMP:  42; 6HR MAX TEMP:  49;

SPENCER        CLOUDY    41  40  96 N17       29.54R
6HR MIN TEMP:  41; 6HR MAX TEMP:  56;

STORM LAKE     CLOUDY    45  41  87 N12       29.53R
$$

ABBREVIATIONS USED IN REMARKS
   TC - TEMPERATURE IN CELSIUS
  WCI - WIND CHILL INDEX
   HX - HEAT INDEX
  VSB - VISIBILITY





USA.gov is the U.S. government's official web portal to all federal, state and local government web resources and services.